Location: Lake Lucerne
(45.5315°N, 88.8489°W)
Time: 17:32:51
(UTC-05:00)

Tiangong 1 - Visible Passes

Search period start: 24 June 2017 00:00
Search period end: 04 July 2017 00:00
Orbit: 321 x 345 km, 42.8° (Epoch: 23 June)

Date Brightness Start Highest point End Pass type
(mag) Time Alt. Az. Time Alt. Az. Time Alt. Az.
24 Jun 1.5 21:30:45 10° SW 21:33:19 34° SSE 21:35:54 10° E visible
24 Jun 1.7 23:05:59 10° WSW 23:07:55 34° SW 23:07:55 34° SW visible
25 Jun 1.1 21:49:54 10° WSW 21:52:36 45° S 21:55:10 11° ESE visible
25 Jun 2.9 23:25:22 10° W 23:26:19 18° WSW 23:26:19 18° WSW visible
26 Jun 1.1 22:09:09 10° WSW 22:11:52 45° S 22:13:25 21° ESE visible
27 Jun 1.5 22:28:27 10° W 22:31:03 35° SSW 22:31:35 31° SSE visible
28 Jun 2.4 22:47:52 10° WSW 22:49:40 21° SW 22:49:40 21° SW visible
29 Jun 1.6 21:31:22 10° W 21:33:59 35° SSW 21:36:34 10° SE visible
30 Jun 2.3 21:50:42 10° WSW 21:53:00 22° SSW 21:54:35 14° SSE visible
01 Jul 3.1 22:10:34 10° SW 22:11:51 12° SSW 22:12:34 12° SSW visible
